| time (UTC) | temp F | wind direction | speed MPH | gust MPH | rain 1hr in | rain 24hr in | rain mn in | humidity % | barometer mb |
| 20260906044455 | 78 | 273 | 0.0 | 0.0 | 0.00 | 0.00 | 0.00 | 91 | 1011.2 |
| 20260906043951 | 79 | 273 | 0.0 | 0.0 | 0.00 | 0.00 | 0.00 | 91 | 1011.3 |
| 20260906043446 | 79 | 273 | 0.0 | 0.0 | 0.00 | 0.00 | 0.00 | 91 | 1011.0 |
| 20260906042942 | 79 | 273 | 0.0 | 0.0 | 0.00 | 0.00 | 0.00 | 91 | 1011.3 |
| 20260906042441 | 79 | 273 | 0.0 | 0.0 | 0.00 | 0.00 | 0.00 | 91 | 1011.3 |
| 20260906041936 | 79 | 273 | 0.0 | 0.0 | 0.00 | 0.00 | 0.00 | 91 | 1011.4 |
| 20260906041433 | 79 | 273 | 0.0 | 0.0 | 0.00 | 0.00 | 0.00 | 90 | 1011.1 |
| 20260906040932 | 79 | 273 | 0.0 | 0.0 | 0.00 | 0.00 | 0.00 | 89 | 1011.1 |
| 20260906040427 | 79 | 273 | 0.0 | 0.0 | 0.00 | 0.00 | 0.00 | 89 | 1011.2 |
| 20260906035922 | 79 | 273 | 0.0 | 0.0 | 0.00 | 0.00 | 0.00 | 89 | 1011.1 |
| 20260906035418 | 80 | 273 | 0.0 | 0.0 | 0.00 | 0.00 | 0.00 | 88 | 1011.2 |
| 20260906034913 | 80 | 273 | 0.0 | 0.0 | 0.00 | 0.00 | 0.00 | 88 | 1011.2 |
| 20260906034413 | 80 | 273 | 0.0 | 0.0 | 0.00 | 0.00 | 0.00 | 88 | 1011.1 |
| 20260906033909 | 80 | 273 | 0.0 | 0.0 | 0.00 | 0.00 | 0.00 | 88 | 1011.2 |
| 20260906033408 | 80 | 273 | 0.0 | 0.0 | 0.00 | 0.00 | 0.00 | 88 | 1011.2 |
| 20260906032904 | 80 | 273 | 0.0 | 0.0 | 0.00 | 0.00 | 0.00 | 88 | 1011.2 |
| 20260906032401 | 80 | 273 | 0.0 | 0.0 | 0.00 | 0.00 | 0.00 | 88 | 1011.3 |
| 20260906031855 | 80 | 273 | 0.0 | 0.0 | 0.00 | 0.00 | 0.00 | 87 | 1011.4 |
| 20260906031350 | 80 | 273 | 0.0 | 0.0 | 0.00 | 0.00 | 0.00 | 88 | 1011.2 |
| 20260906030845 | 80 | 273 | 0.0 | 0.0 | 0.00 | 0.00 | 0.00 | 88 | 1011.2 |
| 20260906030340 | 80 | 273 | 0.0 | 0.0 | 0.00 | 0.00 | 0.00 | 88 | 1011.2 |
| 20260906025835 | 80 | 273 | 0.0 | 0.0 | 0.00 | 0.00 | 0.00 | 87 | 1011.3 |
| 20260906025328 | 80 | 273 | 0.0 | 0.0 | 0.00 | 0.00 | 0.00 | 86 | 1011.1 |
| 20260906024828 | 81 | 273 | 0.0 | 0.0 | 0.00 | 0.00 | 0.00 | 86 | 1011.4 |
| 20260906024327 | 81 | 274 | 0.0 | 0.0 | 0.00 | 0.00 | 0.00 | 85 | 1011.1 |
| 20260906023823 | 81 | 274 | 0.0 | 0.0 | 0.00 | 0.00 | 0.00 | 86 | 1011.0 |
| 20260906023318 | 81 | 274 | 0.0 | 0.0 | 0.00 | 0.00 | 0.00 | 85 | 1010.9 |
| 20260906022814 | 81 | 274 | 0.0 | 0.0 | 0.00 | 0.00 | 0.00 | 85 | 1011.1 |
| 20260906022308 | 81 | 274 | 0.0 | 0.0 | 0.00 | 0.00 | 0.00 | 85 | 1011.0 |
| 20260906021805 | 82 | 274 | 0.0 | 0.0 | 0.00 | 0.00 | 0.00 | 84 | 1010.8 |
| 20260906021304 | 82 | 274 | 0.0 | 0.0 | 0.00 | 0.00 | 0.00 | 84 | 1010.7 |
| 20260906020759 | 82 | 274 | 0.0 | 0.0 | 0.00 | 0.00 | 0.00 | 84 | 1010.7 |
| 20260906020258 | 82 | 274 | 0.0 | 0.0 | 0.00 | 0.00 | 0.00 | 83 | 1010.9 |
| 20260906015758 | 82 | 274 | 0.0 | 0.0 | 0.00 | 0.00 | 0.00 | 83 | 1010.5 |
| 20260906015256 | 82 | 274 | 0.0 | 0.0 | 0.00 | 0.00 | 0.00 | 83 | 1010.7 |
| 20260906014751 | 82 | 274 | 0.0 | 0.0 | 0.00 | 0.00 | 0.00 | 83 | 1010.6 |
| 20260906014247 | 82 | 274 | 0.0 | 0.0 | 0.00 | 0.00 | 0.00 | 82 | 1010.4 |
| 20260906013743 | 83 | 274 | 0.0 | 0.0 | 0.00 | 0.00 | 0.00 | 82 | 1010.4 |
| 20260906013243 | 83 | 274 | 0.0 | 0.0 | 0.00 | 0.00 | 0.00 | 82 | 1010.6 |
| 20260906012738 | 83 | 274 | 0.0 | 0.0 | 0.00 | 0.00 | 0.00 | 81 | 1010.3 |
| 20260906012233 | 83 | 274 | 0.0 | 0.0 | 0.00 | 0.00 | 0.00 | 81 | 1010.3 |
| 20260906011729 | 84 | 274 | 0.0 | 0.0 | 0.00 | 0.00 | 0.00 | 80 | 1010.6 |
| 20260906011228 | 84 | 274 | 0.0 | 0.0 | 0.00 | 0.00 | 0.00 | 80 | 1010.3 |
| 20260906010724 | 84 | 274 | 0.0 | 0.0 | 0.00 | 0.00 | 0.00 | 80 | 1010.2 |
| 20260906010220 | 84 | 274 | 0.0 | 0.0 | 0.00 | 0.00 | 0.00 | 79 | 1010.0 |
| 20260906005715 | 85 | 274 | 0.0 | 0.0 | 0.00 | 0.00 | 0.00 | 78 | 1010.2 |
| 20260906005214 | 85 | 274 | 0.0 | 0.0 | 0.00 | 0.00 | 0.00 | 78 | 1010.0 |
| 20260906004713 | 85 | 274 | 0.0 | 0.0 | 0.00 | 0.00 | 0.00 | 76 | 1009.8 |
| 20260906004208 | 86 | 274 | 0.0 | 0.0 | 0.00 | 0.00 | 0.00 | 76 | 1010.4 |
| 20260906003704 | 86 | 274 | 0.0 | 0.0 | 0.00 | 0.00 | 0.00 | 76 | 1010.1 |
| 20260906003200 | 86 | 274 | 0.0 | 0.0 | 0.00 | 0.00 | 0.00 | 75 | 1010.1 |
| 20260906002659 | 87 | 274 | 0.0 | 0.0 | 0.00 | 0.00 | 0.00 | 74 | 1010.1 |
| 20260906002154 | 87 | 274 | 0.0 | 0.0 | 0.00 | 0.00 | 0.00 | 73 | 1010.1 |
| 20260906001650 | 87 | 274 | 0.0 | 0.0 | 0.00 | 0.00 | 0.00 | 72 | 1010.0 |
| 20260906001149 | 88 | 274 | 0.0 | 0.0 | 0.00 | 0.00 | 0.00 | 71 | 1010.0 |
| 20260906000645 | 88 | 274 | 0.0 | 0.0 | 0.00 | 0.00 | 0.00 | 71 | 1010.1 |
| 20260906000140 | 89 | 274 | 0.0 | 0.0 | 0.00 | 0.00 | 0.00 | 69 | 1009.9 |
| 20260905235639 | 89 | 274 | 0.0 | 0.0 | 0.00 | 0.00 | 0.00 | 68 | 1009.9 |
| 20260905235134 | 90 | 274 | 0.0 | 0.0 | 0.00 | 0.00 | 0.00 | 67 | 1010.2 |
| 20260905234630 | 90 | 274 | 0.0 | 0.0 | 0.00 | 0.00 | 0.00 | 64 | 1010.0 |
| 20260905234125 | 91 | 274 | 0.0 | 0.0 | 0.00 | 0.00 | 0.00 | 64 | 1010.0 |
| 20260905233620 | 91 | 274 | 0.0 | 0.0 | 0.00 | 0.00 | 0.00 | 64 | 1010.0 |
| 20260905233120 | 91 | 274 | 0.0 | 0.0 | 0.00 | 0.00 | 0.00 | 62 | 1010.2 |
| 20260905232616 | 91 | 275 | 0.0 | 0.0 | 0.00 | 0.00 | 0.00 | 62 | 1010.5 |
| 20260905232112 | 92 | 275 | 0.0 | 0.0 | 0.00 | 0.00 | 0.00 | 61 | 1010.3 |
| 20260905231611 | 92 | 267 | 0.0 | 0.0 | 0.00 | 0.00 | 0.00 | 61 | 1010.1 |
| 20260905231108 | 93 | 267 | 0.0 | 0.0 | 0.00 | 0.00 | 0.00 | 59 | 1010.0 |
| 20260905230603 | 93 | 265 | 0.0 | 0.0 | 0.00 | 0.00 | 0.00 | 56 | 1010.3 |
| 20260905225600 | 95 | 242 | 0.0 | 0.0 | 0.00 | 0.00 | 0.00 | 52 | 1010.1 |
| 20260905225056 | 95 | 241 | 0.0 | 0.0 | 0.00 | 0.00 | 0.00 | 52 | 1010.2 |
| 20260905224555 | 95 | 241 | 0.0 | 0.0 | 0.00 | 0.00 | 0.00 | 52 | 1010.4 |
| 20260905224055 | 95 | 241 | 0.0 | 0.0 | 0.00 | 0.00 | 0.00 | 52 | 1010.1 |
| 20260905223553 | 95 | 231 | 0.0 | 0.0 | 0.00 | 0.00 | 0.00 | 52 | 1010.1 |
| 20260905223048 | 95 | 69 | 0.0 | 0.0 | 0.00 | 0.00 | 0.00 | 52 | 1010.1 |
| 20260905222548 | 95 | 69 | 0.0 | 0.0 | 0.00 | 0.00 | 0.00 | 54 | 1010.3 |
| 20260905222044 | 95 | 306 | 0.0 | 0.0 | 0.00 | 0.00 | 0.00 | 53 | 1010.3 |
| 20260905221540 | 95 | 226 | 0.0 | 0.0 | 0.00 | 0.00 | 0.00 | 53 | 1010.1 |
| 20260905221036 | 95 | 233 | 0.0 | 0.0 | 0.00 | 0.00 | 0.00 | 53 | 1010.3 |
| 20260905220531 | 95 | 229 | 0.0 | 1.0 | 0.00 | 0.00 | 0.00 | 55 | 1010.2 |
| 20260905220027 | 95 | 240 | 0.0 | 0.0 | 0.00 | 0.00 | 0.00 | 55 | 1010.4 |
| 20260905215526 | 95 | 226 | 0.0 | 0.0 | 0.00 | 0.00 | 0.00 | 54 | 1010.5 |
| 20260905215023 | 95 | 224 | 1.0 | 1.0 | 0.00 | 0.00 | 0.00 | 53 | 1010.5 |
| 20260905214518 | 95 | 94 | 1.0 | 1.0 | 0.00 | 0.00 | 0.00 | 53 | 1010.4 |
| 20260905214013 | 95 | 224 | 0.0 | 1.0 | 0.00 | 0.00 | 0.00 | 52 | 1010.5 |
| 20260905213509 | 95 | 190 | 0.0 | 1.0 | 0.00 | 0.00 | 0.00 | 52 | 1010.3 |
| 20260905213004 | 93 | 224 | 1.0 | 1.0 | 0.00 | 0.00 | 0.00 | 55 | 1010.7 |
| 20260905212459 | 93 | 278 | 0.0 | 0.0 | 0.00 | 0.00 | 0.00 | 57 | 1010.7 |
| 20260905211958 | 93 | 255 | 0.0 | 0.0 | 0.00 | 0.00 | 0.00 | 55 | 1010.5 |
| 20260905211454 | 92 | 243 | 0.0 | 0.0 | 0.00 | 0.00 | 0.00 | 54 | 1010.4 |
| 20260905210949 | 91 | 201 | 2.0 | 2.0 | 0.00 | 0.00 | 0.00 | 57 | 1010.7 |
| 20260905210444 | 90 | 211 | 2.0 | 2.0 | 0.00 | 0.00 | 0.00 | 58 | 1010.8 |
| 20260905205944 | 88 | 210 | 1.0 | 2.0 | 0.00 | 0.00 | 0.00 | 64 | 1010.7 |
| 20260905205439 | 88 | 237 | 1.0 | 2.0 | 0.00 | 0.00 | 0.00 | 66 | 1011.3 |
| 20260905204938 | 89 | 236 | 2.0 | 2.0 | 0.00 | 0.00 | 0.00 | 66 | 1011.5 |
| 20260905204434 | 95 | 240 | 3.0 | 3.0 | 0.00 | 0.00 | 0.00 | 61 | 1011.3 |
| 20260905203933 | 96 | 233 | 1.0 | 1.0 | 0.00 | 0.00 | 0.00 | 52 | 1011.0 |
| 20260905203428 | 97 | 260 | 0.0 | 0.0 | 0.00 | 0.00 | 0.00 | 51 | 1011.2 |
| 20260905202923 | 98 | 80 | 2.0 | 3.0 | 0.00 | 0.00 | 0.00 | 49 | 1011.2 |
| 20260905202419 | 100 | 61 | 1.0 | 2.0 | 0.00 | 0.00 | 0.00 | 48 | 1011.0 |
| 20260905201914 | 99 | 36 | 1.0 | 2.0 | 0.00 | 0.00 | 0.00 | 46 | 1011.2 |
| 20260905201409 | 98 | 248 | 0.0 | 0.0 | 0.00 | 0.00 | 0.00 | 47 | 1011.1 |
| 20260905200909 | 96 | 203 | 3.0 | 3.0 | 0.00 | 0.00 | 0.00 | 49 | 1011.3 |
| 20260905200405 | 94 | 310 | 0.0 | 0.0 | 0.00 | 0.00 | 0.00 | 57 | 1011.3 |
| 20260905195903 | 94 | 310 | 0.0 | 0.0 | 0.00 | 0.00 | 0.00 | 58 | 1011.3 |
| 20260905195358 | 95 | 310 | 0.0 | 0.0 | 0.00 | 0.00 | 0.00 | 57 | 1011.3 |
| 20260905194855 | 95 | 310 | 0.0 | 0.0 | 0.00 | 0.00 | 0.00 | 55 | 1011.5 |
| 20260905194354 | 96 | 310 | 0.0 | 0.0 | 0.00 | 0.00 | 0.00 | 54 | 1011.6 |
| 20260905193853 | 96 | 309 | 0.0 | 0.0 | 0.00 | 0.00 | 0.00 | 54 | 1011.5 |
| 20260905193348 | 97 | 339 | 0.0 | 0.0 | 0.00 | 0.00 | 0.00 | 51 | 1011.7 |
| 20260905192844 | 99 | 335 | 0.0 | 0.0 | 0.00 | 0.00 | 0.00 | 49 | 1011.6 |
| 20260905192339 | 100 | 51 | 1.0 | 2.0 | 0.00 | 0.00 | 0.00 | 48 | 1011.8 |
| 20260905191839 | 103 | 286 | 1.0 | 1.0 | 0.00 | 0.00 | 0.00 | 44 | 1011.7 |
| 20260905191338 | 102 | 240 | 0.0 | 0.0 | 0.00 | 0.00 | 0.00 | 44 | 1011.7 |
| 20260905190837 | 101 | 269 | 0.0 | 1.0 | 0.00 | 0.00 | 0.00 | 45 | 1011.9 |
| 20260905190330 | 100 | 71 | 3.0 | 5.0 | 0.00 | 0.00 | 0.00 | 46 | 1012.0 |
| 20260905185829 | 101 | 194 | 1.0 | 2.0 | 0.00 | 0.00 | 0.00 | 46 | 1011.9 |
| 20260905185325 | 99 | 218 | 0.0 | 1.0 | 0.00 | 0.00 | 0.00 | 48 | 1012.3 |
| 20260905184824 | 98 | 313 | 1.0 | 1.0 | 0.00 | 0.00 | 0.00 | 52 | 1012.2 |
| 20260905184323 | 97 | 274 | 0.0 | 0.0 | 0.00 | 0.00 | 0.00 | 51 | 1012.5 |
| 20260905183821 | 99 | 322 | 0.0 | 0.0 | 0.00 | 0.00 | 0.00 | 51 | 1012.1 |
| 20260905183318 | 100 | 234 | 1.0 | 1.0 | 0.00 | 0.00 | 0.00 | 48 | 1012.5 |
| 20260905182818 | 100 | 61 | 1.0 | 1.0 | 0.00 | 0.00 | 0.00 | 48 | 1012.6 |
| 20260905182317 | 102 | 45 | 0.0 | 0.0 | 0.00 | 0.00 | 0.00 | 46 | 1012.1 |
| 20260905181813 | 100 | 16 | 0.0 | 1.0 | 0.00 | 0.00 | 0.00 | 46 | 1012.4 |
| 20260905181312 | 97 | 22 | 0.0 | 1.0 | 0.00 | 0.00 | 0.00 | 51 | 1012.4 |
| 20260905180811 | 98 | 294 | 0.0 | 1.0 | 0.00 | 0.00 | 0.00 | 52 | 1012.4 |
| 20260905180307 | 99 | 269 | 0.0 | 0.0 | 0.00 | 0.00 | 0.00 | 48 | 1012.3 |
| 20260905175801 | 99 | 333 | 0.0 | 0.0 | 0.00 | 0.00 | 0.00 | 49 | 1012.4 |
| 20260905175256 | 101 | 336 | 1.0 | 1.0 | 0.00 | 0.00 | 0.00 | 48 | 1012.8 |
| 20260905174752 | 101 | 190 | 2.0 | 3.0 | 0.00 | 0.00 | 0.00 | 47 | 1012.5 |
| 20260905174247 | 100 | 334 | 2.0 | 2.0 | 0.00 | 0.00 | 0.00 | 48 | 1012.7 |
| 20260905173743 | 98 | 324 | 0.0 | 0.0 | 0.00 | 0.00 | 0.00 | 54 | 1012.7 |
| 20260905173239 | 98 | 353 | 0.0 | 0.0 | 0.00 | 0.00 | 0.00 | 52 | 1012.7 |
| 20260905172738 | 100 | 278 | 0.0 | 1.0 | 0.00 | 0.00 | 0.00 | 49 | 1012.8 |
| 20260905172232 | 103 | 212 | 1.0 | 1.0 | 0.00 | 0.00 | 0.00 | 45 | 1012.8 |
| 20260905171729 | 101 | 52 | 0.0 | 1.0 | 0.00 | 0.00 | 0.00 | 47 | 1013.1 |
| 20260905171225 | 100 | 35 | 1.0 | 1.0 | 0.00 | 0.00 | 0.00 | 49 | 1012.9 |
| 20260905170721 | 101 | 105 | 1.0 | 2.0 | 0.00 | 0.00 | 0.00 | 47 | 1013.1 |
| 20260905170221 | 100 | 80 | 1.0 | 1.0 | 0.00 | 0.00 | 0.00 | 48 | 1013.1 |
| 20260905165721 | 100 | 41 | 1.0 | 1.0 | 0.00 | 0.00 | 0.00 | 50 | 1013.2 |
| 20260905165216 | 100 | 356 | 1.0 | 1.0 | 0.00 | 0.00 | 0.00 | 51 | 1013.3 |
| 20260905164716 | 101 | 82 | 1.0 | 2.0 | 0.00 | 0.00 | 0.00 | 49 | 1013.7 |
| 20260905164216 | 100 | 105 | 0.0 | 1.0 | 0.00 | 0.00 | 0.00 | 50 | 1013.5 |
| 20260905163712 | 100 | 337 | 1.0 | 1.0 | 0.00 | 0.00 | 0.00 | 53 | 1013.6 |
| 20260905163209 | 99 | 324 | 0.0 | 1.0 | 0.00 | 0.00 | 0.00 | 51 | 1013.5 |
| 20260905162704 | 99 | 42 | 1.0 | 2.0 | 0.00 | 0.00 | 0.00 | 52 | 1013.5 |
| 20260905162204 | 98 | 182 | 1.0 | 2.0 | 0.00 | 0.00 | 0.00 | 53 | 1013.7 |
| 20260905161659 | 98 | 49 | 2.0 | 2.0 | 0.00 | 0.00 | 0.00 | 53 | 1013.8 |
| 20260905161157 | 98 | 272 | 1.0 | 1.0 | 0.00 | 0.00 | 0.00 | 54 | 1013.4 |
| 20260905160656 | 98 | 343 | 1.0 | 2.0 | 0.00 | 0.00 | 0.00 | 54 | 1013.8 |
| 20260905160155 | 96 | 249 | 0.0 | 1.0 | 0.00 | 0.00 | 0.00 | 57 | 1013.6 |
| 20260905155650 | 96 | 334 | 1.0 | 1.0 | 0.00 | 0.00 | 0.00 | 59 | 1013.8 |
| 20260905155149 | 95 | 172 | 0.0 | 1.0 | 0.00 | 0.00 | 0.00 | 58 | 1014.1 |
| 20260905154643 | 95 | 344 | 1.0 | 2.0 | 0.00 | 0.00 | 0.00 | 60 | 1014.0 |
| 20260905154139 | 95 | 320 | 0.0 | 0.0 | 0.00 | 0.00 | 0.00 | 59 | 1013.8 |
| 20260905153635 | 95 | 337 | 1.0 | 1.0 | 0.00 | 0.00 | 0.00 | 59 | 1014.0 |
| 20260905153130 | 95 | 290 | 1.0 | 1.0 | 0.00 | 0.00 | 0.00 | 59 | 1013.9 |
| 20260905152625 | 94 | 289 | 1.0 | 1.0 | 0.00 | 0.00 | 0.00 | 63 | 1013.8 |
| 20260905152119 | 94 | 313 | 0.0 | 0.0 | 0.00 | 0.00 | 0.00 | 63 | 1013.9 |
| 20260905151614 | 94 | 281 | 1.0 | 1.0 | 0.00 | 0.00 | 0.00 | 62 | 1013.8 |
| 20260905151110 | 94 | 336 | 1.0 | 1.0 | 0.00 | 0.00 | 0.00 | 65 | 1014.0 |
| 20260905150605 | 93 | 222 | 0.0 | 0.0 | 0.00 | 0.00 | 0.00 | 63 | 1013.9 |
| 20260905150103 | 93 | 201 | 1.0 | 1.0 | 0.00 | 0.00 | 0.00 | 64 | 1013.9 |
| 20260905145556 | 92 | 104 | 1.0 | 1.0 | 0.00 | 0.00 | 0.00 | 66 | 1013.9 |
| 20260905145055 | 92 | 332 | 0.0 | 0.0 | 0.00 | 0.00 | 0.00 | 69 | 1014.0 |
| 20260905144550 | 90 | 332 | 0.0 | 0.0 | 0.00 | 0.00 | 0.00 | 68 | 1013.7 |
| 20260905144050 | 89 | 332 | 0.0 | 0.0 | 0.00 | 0.00 | 0.00 | 71 | 1013.8 |
| 20260905143549 | 88 | 332 | 0.0 | 0.0 | 0.00 | 0.00 | 0.00 | 72 | 1013.8 |
| 20260905143044 | 88 | 333 | 0.0 | 0.0 | 0.00 | 0.00 | 0.00 | 72 | 1013.8 |
| 20260905142543 | 87 | 231 | 0.0 | 0.0 | 0.00 | 0.00 | 0.00 | 72 | 1013.7 |
| 20260905142038 | 87 | 212 | 0.0 | 0.0 | 0.00 | 0.00 | 0.00 | 73 | 1013.9 |
| 20260905141532 | 86 | 338 | 0.0 | 0.0 | 0.00 | 0.00 | 0.00 | 75 | 1013.8 |
| 20260905141030 | 86 | 339 | 0.0 | 0.0 | 0.00 | 0.00 | 0.00 | 76 | 1013.6 |
| 20260905140529 | 85 | 335 | 0.0 | 0.0 | 0.00 | 0.00 | 0.00 | 79 | 1013.7 |
| 20260905140028 | 84 | 352 | 0.0 | 0.0 | 0.00 | 0.00 | 0.00 | 79 | 1013.7 |
| 20260905135524 | 84 | 352 | 0.0 | 0.0 | 0.00 | 0.00 | 0.00 | 80 | 1013.8 |
| 20260905135019 | 85 | 41 | 0.0 | 0.0 | 0.00 | 0.00 | 0.00 | 79 | 1013.7 |
| 20260905134514 | 86 | 41 | 0.0 | 0.0 | 0.00 | 0.00 | 0.00 | 77 | 1013.7 |
| 20260905134012 | 86 | 157 | 0.0 | 0.0 | 0.00 | 0.00 | 0.00 | 77 | 1013.8 |
| 20260905133508 | 85 | 39 | 0.0 | 0.0 | 0.00 | 0.00 | 0.00 | 79 | 1013.6 |
| 20260905133008 | 85 | 39 | 0.0 | 0.0 | 0.00 | 0.00 | 0.00 | 79 | 1013.5 |
| 20260905132503 | 84 | 39 | 0.0 | 0.0 | 0.00 | 0.00 | 0.00 | 81 | 1013.7 |
| 20260905132002 | 83 | 39 | 0.0 | 0.0 | 0.00 | 0.00 | 0.00 | 83 | 1013.4 |
| 20260905131458 | 82 | 39 | 0.0 | 0.0 | 0.00 | 0.00 | 0.00 | 85 | 1013.8 |
| 20260905130953 | 82 | 39 | 0.0 | 0.0 | 0.00 | 0.00 | 0.00 | 84 | 1013.5 |
| 20260905130452 | 82 | 39 | 0.0 | 0.0 | 0.00 | 0.00 | 0.00 | 85 | 1013.6 |
| 20260905125952 | 81 | 39 | 0.0 | 0.0 | 0.00 | 0.00 | 0.00 | 87 | 1013.6 |
| 20260905125447 | 80 | 39 | 0.0 | 0.0 | 0.00 | 0.00 | 0.00 | 88 | 1013.5 |
| 20260905124942 | 79 | 39 | 0.0 | 0.0 | 0.00 | 0.00 | 0.00 | 89 | 1013.4 |
| 20260905124440 | 79 | 50 | 0.0 | 0.0 | 0.00 | 0.00 | 0.00 | 89 | 1013.3 |
| 20260905123940 | 78 | 49 | 0.0 | 0.0 | 0.00 | 0.00 | 0.00 | 91 | 1013.4 |
| 20260905123437 | 77 | 49 | 0.0 | 0.0 | 0.00 | 0.00 | 0.00 | 94 | 1013.6 |
| 20260905122936 | 75 | 268 | 0.0 | 0.0 | 0.00 | 0.00 | 0.00 | 96 | 1013.4 |
| 20260905122436 | 75 | 268 | 0.0 | 0.0 | 0.00 | 0.00 | 0.00 | 96 | 1013.4 |
| 20260905121933 | 74 | 268 | 0.0 | 0.0 | 0.00 | 0.00 | 0.00 | 97 | 1013.4 |
| 20260905121428 | 74 | 269 | 0.0 | 0.0 | 0.00 | 0.00 | 0.00 | 98 | 1013.3 |
| 20260905120927 | 74 | 269 | 0.0 | 0.0 | 0.00 | 0.00 | 0.00 | 98 | 1013.3 |
| 20260905120422 | 74 | 272 | 0.0 | 0.0 | 0.00 | 0.00 | 0.00 | 98 | 1013.3 |
| 20260905115917 | 74 | 272 | 0.0 | 0.0 | 0.00 | 0.00 | 0.00 | 98 | 1013.0 |
| 20260905115416 | 74 | 272 | 0.0 | 0.0 | 0.00 | 0.00 | 0.00 | 98 | 1013.2 |
| 20260905114911 | 74 | 258 | 0.0 | 0.0 | 0.00 | 0.00 | 0.00 | 97 | 1013.0 |
| 20260905114410 | 73 | 257 | 0.0 | 0.0 | 0.00 | 0.00 | 0.00 | 97 | 1012.9 |
| 20260905113909 | 74 | 258 | 0.0 | 0.0 | 0.00 | 0.00 | 0.00 | 97 | 1013.0 |
| 20260905113405 | 74 | 258 | 0.0 | 0.0 | 0.00 | 0.00 | 0.00 | 97 | 1012.8 |
| 20260905112900 | 74 | 258 | 0.0 | 0.0 | 0.00 | 0.00 | 0.00 | 97 | 1012.9 |
| 20260905112355 | 74 | 258 | 0.0 | 0.0 | 0.00 | 0.00 | 0.00 | 97 | 1012.9 |
| 20260905111850 | 74 | 258 | 0.0 | 0.0 | 0.00 | 0.00 | 0.00 | 97 | 1012.7 |
| 20260905111345 | 74 | 258 | 0.0 | 0.0 | 0.00 | 0.00 | 0.00 | 97 | 1012.7 |
| 20260905110844 | 74 | 258 | 0.0 | 0.0 | 0.00 | 0.00 | 0.00 | 97 | 1012.8 |
| 20260905110344 | 74 | 258 | 0.0 | 0.0 | 0.00 | 0.00 | 0.00 | 97 | 1012.5 |
| 20260905105839 | 74 | 254 | 0.0 | 0.0 | 0.00 | 0.00 | 0.00 | 97 | 1012.7 |
| 20260905105338 | 74 | 257 | 0.0 | 0.0 | 0.00 | 0.00 | 0.00 | 96 | 1012.8 |
| 20260905104832 | 74 | 282 | 0.0 | 0.0 | 0.00 | 0.00 | 0.00 | 96 | 1012.5 |
| 20260905104329 | 74 | 282 | 0.0 | 0.0 | 0.00 | 0.00 | 0.00 | 96 | 1012.5 |
| 20260905103828 | 75 | 282 | 0.0 | 0.0 | 0.00 | 0.00 | 0.00 | 96 | 1012.6 |
| 20260905103324 | 74 | 282 | 0.0 | 0.0 | 0.00 | 0.00 | 0.00 | 96 | 1013.0 |
| 20260905102821 | 74 | 282 | 0.0 | 0.0 | 0.00 | 0.00 | 0.00 | 96 | 1012.9 |
| 20260905102317 | 74 | 282 | 0.0 | 0.0 | 0.00 | 0.00 | 0.00 | 95 | 1012.8 |
| 20260905101816 | 75 | 282 | 0.0 | 0.0 | 0.00 | 0.00 | 0.00 | 95 | 1012.7 |
| 20260905101315 | 75 | 282 | 0.0 | 0.0 | 0.00 | 0.00 | 0.00 | 96 | 1012.7 |
| 20260905100809 | 75 | 282 | 0.0 | 0.0 | 0.00 | 0.00 | 0.00 | 96 | 1012.6 |
| 20260905100306 | 74 | 282 | 0.0 | 0.0 | 0.00 | 0.00 | 0.00 | 95 | 1012.9 |
| 20260905095805 | 75 | 282 | 0.0 | 0.0 | 0.00 | 0.00 | 0.00 | 95 | 1012.8 |
| 20260905095306 | 75 | 282 | 0.0 | 0.0 | 0.00 | 0.00 | 0.00 | 95 | 1012.7 |
| 20260905094759 | 75 | 282 | 0.0 | 0.0 | 0.00 | 0.00 | 0.00 | 95 | 1012.9 |
| 20260905094255 | 75 | 282 | 0.0 | 0.0 | 0.00 | 0.00 | 0.00 | 95 | 1012.8 |
| 20260905093754 | 75 | 282 | 0.0 | 0.0 | 0.00 | 0.00 | 0.00 | 95 | 1012.8 |
| 20260905093250 | 75 | 282 | 0.0 | 0.0 | 0.00 | 0.00 | 0.00 | 95 | 1012.6 |
| 20260905092745 | 75 | 282 | 0.0 | 0.0 | 0.00 | 0.00 | 0.00 | 95 | 1012.8 |
| 20260905092241 | 75 | 282 | 0.0 | 0.0 | 0.00 | 0.00 | 0.00 | 95 | 1012.6 |
| 20260905091740 | 75 | 282 | 0.0 | 0.0 | 0.00 | 0.00 | 0.00 | 94 | 1012.6 |
| 20260905091235 | 75 | 282 | 0.0 | 0.0 | 0.00 | 0.00 | 0.00 | 94 | 1012.6 |
| 20260905090734 | 75 | 282 | 0.0 | 0.0 | 0.00 | 0.00 | 0.00 | 94 | 1012.6 |
| 20260905090230 | 75 | 282 | 0.0 | 0.0 | 0.00 | 0.00 | 0.00 | 94 | 1012.7 |
| 20260905085729 | 75 | 282 | 0.0 | 0.0 | 0.00 | 0.00 | 0.00 | 94 | 1012.4 |
| 20260905085224 | 76 | 336 | 0.0 | 0.0 | 0.00 | 0.00 | 0.00 | 94 | 1012.5 |
| 20260905084724 | 76 | 336 | 0.0 | 0.0 | 0.00 | 0.00 | 0.00 | 94 | 1012.6 |
| 20260905084224 | 76 | 336 | 0.0 | 0.0 | 0.00 | 0.00 | 0.00 | 94 | 1012.7 |
| 20260905083719 | 75 | 336 | 0.0 | 0.0 | 0.00 | 0.00 | 0.00 | 94 | 1012.7 |
| 20260905083215 | 75 | 3 | 0.0 | 0.0 | 0.00 | 0.00 | 0.00 | 94 | 1012.8 |
| 20260905082711 | 75 | 3 | 0.0 | 0.0 | 0.00 | 0.00 | 0.00 | 94 | 1012.6 |
| 20260905082206 | 75 | 3 | 0.0 | 0.0 | 0.00 | 0.00 | 0.00 | 94 | 1012.9 |
| 20260905081706 | 75 | 3 | 0.0 | 0.0 | 0.00 | 0.00 | 0.00 | 94 | 1012.6 |
| 20260905081202 | 75 | 3 | 0.0 | 0.0 | 0.00 | 0.00 | 0.00 | 94 | 1012.8 |
| 20260905080701 | 75 | 3 | 0.0 | 0.0 | 0.00 | 0.00 | 0.00 | 93 | 1012.6 |
| 20260905080200 | 75 | 3 | 0.0 | 0.0 | 0.00 | 0.00 | 0.00 | 93 | 1012.7 |
| 20260905075700 | 76 | 3 | 0.0 | 0.0 | 0.00 | 0.00 | 0.00 | 94 | 1012.8 |
| 20260905075159 | 76 | 3 | 0.0 | 0.0 | 0.00 | 0.00 | 0.00 | 94 | 1012.6 |
| 20260905074658 | 76 | 3 | 0.0 | 0.0 | 0.00 | 0.00 | 0.00 | 93 | 1012.8 |
| 20260905074154 | 76 | 3 | 0.0 | 0.0 | 0.00 | 0.00 | 0.00 | 93 | 1012.6 |
| 20260905073649 | 76 | 3 | 0.0 | 0.0 | 0.00 | 0.00 | 0.00 | 93 | 1012.7 |
| 20260905073145 | 76 | 3 | 0.0 | 0.0 | 0.00 | 0.00 | 0.00 | 93 | 1012.7 |
| 20260905072644 | 76 | 3 | 0.0 | 0.0 | 0.00 | 0.00 | 0.00 | 93 | 1012.7 |
| 20260905072140 | 76 | 3 | 0.0 | 0.0 | 0.00 | 0.00 | 0.00 | 93 | 1012.7 |
| 20260905071636 | 76 | 3 | 0.0 | 0.0 | 0.00 | 0.00 | 0.00 | 93 | 1013.0 |
| 20260905071131 | 76 | 3 | 0.0 | 0.0 | 0.00 | 0.00 | 0.00 | 93 | 1012.9 |
| 20260905070627 | 76 | 3 | 0.0 | 0.0 | 0.00 | 0.00 | 0.00 | 92 | 1012.9 |
| 20260905070123 | 76 | 3 | 0.0 | 0.0 | 0.00 | 0.00 | 0.00 | 92 | 1012.8 |
| 20260905065621 | 77 | 3 | 0.0 | 0.0 | 0.00 | 0.00 | 0.00 | 92 | 1012.8 |
| 20260905065115 | 76 | 3 | 0.0 | 0.0 | 0.00 | 0.00 | 0.00 | 91 | 1012.9 |
| 20260905064610 | 77 | 3 | 0.0 | 0.0 | 0.00 | 0.00 | 0.00 | 91 | 1012.7 |
| 20260905064106 | 77 | 3 | 0.0 | 0.0 | 0.00 | 0.00 | 0.00 | 91 | 1013.1 |
| 20260905063605 | 77 | 3 | 0.0 | 0.0 | 0.00 | 0.00 | 0.00 | 91 | 1012.9 |
| 20260905063101 | 77 | 3 | 0.0 | 0.0 | 0.00 | 0.00 | 0.00 | 91 | 1013.0 |
| 20260905062557 | 77 | 3 | 0.0 | 0.0 | 0.00 | 0.00 | 0.00 | 91 | 1013.0 |
| 20260905062056 | 77 | 3 | 0.0 | 0.0 | 0.00 | 0.00 | 0.00 | 91 | 1013.1 |
| 20260905061551 | 77 | 3 | 0.0 | 0.0 | 0.00 | 0.00 | 0.00 | 91 | 1012.9 |
| 20260905061050 | 77 | 3 | 0.0 | 0.0 | 0.00 | 0.00 | 0.00 | 90 | 1013.1 |
| 20260905060546 | 77 | 3 | 0.0 | 0.0 | 0.00 | 0.00 | 0.00 | 90 | 1012.8 |
| 20260905060042 | 77 | 3 | 0.0 | 0.0 | 0.00 | 0.00 | 0.00 | 90 | 1013.0 |
| 20260905055541 | 77 | 3 | 0.0 | 0.0 | 0.00 | 0.00 | 0.00 | 90 | 1012.9 |
| 20260905055036 | 77 | 3 | 0.0 | 0.0 | 0.00 | 0.00 | 0.00 | 90 | 1012.8 |
| 20260905054532 | 78 | 344 | 0.0 | 0.0 | 0.00 | 0.00 | 0.00 | 89 | 1012.9 |
| 20260905054028 | 78 | 15 | 0.0 | 0.0 | 0.00 | 0.00 | 0.00 | 90 | 1013.1 |
| 20260905053526 | 78 | 282 | 0.0 | 0.0 | 0.00 | 0.00 | 0.00 | 89 | 1012.8 |
| 20260905053022 | 78 | 282 | 0.0 | 0.0 | 0.00 | 0.00 | 0.00 | 89 | 1012.7 |
| 20260905052522 | 78 | 282 | 0.0 | 0.0 | 0.00 | 0.00 | 0.00 | 88 | 1013.1 |
| 20260905052022 | 78 | 282 | 0.0 | 0.0 | 0.00 | 0.00 | 0.00 | 88 | 1012.9 |
| 20260905051518 | 78 | 282 | 0.0 | 0.0 | 0.00 | 0.00 | 0.00 | 87 | 1012.9 |
| 20260905051015 | 79 | 282 | 0.0 | 0.0 | 0.00 | 0.00 | 0.00 | 87 | 1012.8 |
| 20260905050510 | 79 | 282 | 0.0 | 0.0 | 0.00 | 0.00 | 0.00 | 87 | 1012.8 |
| 20260905050007 | 79 | 282 | 0.0 | 0.0 | 0.00 | 0.00 | 0.00 | 87 | 1012.9 |
| 20260905045501 | 79 | 282 | 0.0 | 0.0 | 0.00 | 0.00 | 0.00 | 87 | 1013.0 |
| 20260905044957 | 79 | 282 | 0.0 | 0.0 | 0.00 | 0.00 | 0.00 | 87 | 1012.9 |